Weather in Devladove

Ukraine / Dnipropetrovsk Region     48°06′05″N   33°45′18″E
temp.,
°C
wind,
m/s
gust,
m/s
humid.,
%
clouds,
%
prec.,
mm/h
press.,
hPa
HPBL,
m
20 september, mon
mon2000:00+15nw697898 0.2 1009384
03:00+12wnw5968100 0.3 1010467
06:00+10wnw5106984 0.0 1011565
09:00+11w696294 0.0 1011845
12:00+15w7104620 0.0 10121422
15:00+15w794780 0.0 10111585
18:00+14wnw6749100 0.0 10121601
21:00+12wnw4764100 0.0 1014661
21 september, tue
tue2100:00+10wnw3577100 0.0 1014264
03:00+11wnw3575100 0.0 1014412
06:00+9w378596 0.0 1015189
09:00+11wnw576866 0.0 1015888
12:00+10wnw6767100 0.1 10161030
15:00+10wnw6759100 0.1 10161145
18:00+10wnw6753100 0.0 10161275
21:00+8wnw5872100 0.0 1017929
22 september, wed
wed2200:00+8wnw5875100 0.0 1017968
03:00+8wnw5777100 0.0 10161004
06:00+7wnw5780100 0.0 1016786
09:00+7wnw5680100 0.1 1016804
12:00+9wnw5670100 0.1 10161082
15:00+10wnw5658100 0.1 10151495
18:00+9wnw4565100 0.0 1016829
21:00+8nw2470100 0.0 1016482
23 september, thu
thu2300:00+8nw2471100 0.0 1015361
03:00+8nw1272100 0.0 1015313
06:00+8nw3374100 0.0 1014467
09:00+8nw3369100 0.0 1015723
12:00+10wnw336298 0.1 10141106
15:00+10wnw3457100 0.2 10141119
18:00+10nw345799 0.0 1014872
21:00+9nnw3570100 0.1 1015434
24 september, fri
fri2400:00+8nw3476100 0.1 1015329
03:00+7wnw2380100 0.1 1015126
06:00+6w22835 0.0 101419
09:00+9wsw466280 0.0 1014543
12:00+14sw7844100 0.0 10121208
15:00+15sw81043100 0.0 10111299
18:00+13sw81460100 0.3 10101228
21:00+12wsw81577100 0.8 1011860